Springfield, VT

7:56 PM EDT on May 22, 2018 (GMT -0400)
Hartness State

Weather History for KVSF - April, 2014

Change the Weather History Date:

Monday, April 14, 2014

  Actual Average Record
Temperature  
Mean Temperature 57 °F 44 °F  
Max Temperature 79 °F 55 °F 79 °F (2014)
Min Temperature 35 °F 32 °F 23 °F (2003)
Degree Days  
Heating Degree Days 8 21  
Month to date heating degree days 305 341  
Since 1 July heating degree days 7288 6821  
Cooling Degree Days 0 0  
Month to date cooling degree days 0 0  
Year to date cooling degree days 0 0  
Growing Degree Days 6 (Base 50)    
Moisture  
Dew Point 46 °F    
Average Humidity 68    
Maximum Humidity 100    
Minimum Humidity 35    
Precipitation  
Precipitation 0.00 in 0.11 in 0.07 in (2002)
Month to date precipitation 1.24 1.96  
Year to date precipitation 6.95 10.87  
Sea Level Pressure  
Sea Level Pressure 29.86 in    
Wind  
Wind Speed 9 mph (South)    
Max Wind Speed 23 mph    
Max Gust Speed 31 mph    
Visibility 10 miles    
Events      
T = Trace of Precipitation, MM = Missing Value Source: NWS Daily Summary

Daily Weather History Graph

Daily Weather History Graph

Search for Another Location

Airport or City:

Astronomy

Apr. 14, 2014 Rise Set
Actual Time 6:09 AM EDT 7:31 PM EDT
Civil Twilight 5:39 AM EDT 8:01 PM EDT
Nautical Twilight 5:04 AM EDT 8:37 PM EDT
Astronomical Twilight 4:26 AM EDT 9:15 PM EDT
Moon 7:07 PM EDT (4/14) 5:41 AM EDT (4/14)
Length of Visible Light 14h 21m
Length of Day
13h 22m
Full, 100% of the Moon is Illuminated
Apr 14
Full
Apr 15
Full
Apr 22
Last Quarter
Apr 29
New
May 6
First Quarter

Hourly Weather History & Observations

Time (EDT) Temp. Dew Point Humidity Pressure Visibility Wind Dir Wind Speed Gust Speed Precip Events Conditions
12:54 AM 37.0 °F 36.0 °F 96% 29.99 in 9.0 mi Calm Calm - N/A   Clear
1:54 AM 36.0 °F 35.1 °F 97% 29.99 in 10.0 mi Calm Calm - N/A   Clear
2:54 AM 37.0 °F 35.1 °F 93% 29.98 in 8.0 mi Calm Calm - N/A   Clear
3:54 AM 36.0 °F 35.1 °F 97% 29.97 in 7.0 mi Calm Calm - N/A   Clear
4:54 AM 35.1 °F 34.0 °F 96% 29.96 in 10.0 mi Calm Calm - N/A   Clear
5:54 AM 35.1 °F 34.0 °F 96% 29.95 in 10.0 mi Calm Calm - N/A   Clear
6:54 AM 36.0 °F 35.1 °F 97% 29.95 in 7.0 mi Calm Calm - N/A   Clear
7:54 AM 39.0 °F 37.0 °F 93% 29.94 in 9.0 mi Calm Calm - N/A   Mostly Cloudy
8:54 AM 50.0 °F 44.1 °F 80% 29.92 in 10.0 mi Calm Calm - N/A   Mostly Cloudy
9:54 AM 62.1 °F 53.1 °F 72% 29.90 in 10.0 mi SE 8.1 mph - N/A   Mostly Cloudy
10:02 AM 63.0 °F 53.1 °F 70% 29.89 in 10.0 mi SSE 6.9 mph - N/A   Scattered Clouds
10:54 AM 68.0 °F 54.0 °F 61% 29.87 in 10.0 mi SSE 12.7 mph 20.7 mph N/A   Clear
11:54 AM 73.0 °F 55.0 °F 53% 29.85 in 10.0 mi SSE 11.5 mph 23.0 mph N/A   Clear
12:54 PM 71.1 °F 55.0 °F 57% 29.83 in 10.0 mi South 15.0 mph 23.0 mph N/A   Clear
1:54 PM 73.9 °F 54.0 °F 50% 29.81 in 10.0 mi South 13.8 mph 24.2 mph N/A   Partly Cloudy
2:54 PM 78.1 °F 48.0 °F 35% 29.79 in 10.0 mi SW 15.0 mph 24.2 mph N/A   Scattered Clouds
3:45 PM 75.9 °F 50.0 °F 40% 29.77 in 10.0 mi SSE 19.6 mph 27.6 mph N/A   Clear
3:54 PM 75.9 °F 48.0 °F 37% 29.77 in 10.0 mi South 15.0 mph 27.6 mph N/A   Clear
4:54 PM 73.9 °F 50.0 °F 43% 29.76 in 10.0 mi South 13.8 mph 23.0 mph N/A   Clear
5:54 PM 70.0 °F 52.0 °F 53% 29.77 in 10.0 mi South 18.4 mph 28.8 mph N/A   Clear
6:54 PM 68.0 °F 52.0 °F 56% 29.78 in 10.0 mi South 15.0 mph 25.3 mph N/A   Clear
7:54 PM 64.9 °F 51.1 °F 61% 29.78 in 10.0 mi South 15.0 mph 23.0 mph N/A   Clear
8:54 PM 63.0 °F 50.0 °F 63% 29.81 in 10.0 mi South 9.2 mph 21.9 mph N/A   Clear
9:54 PM 62.1 °F 50.0 °F 65% 29.81 in 10.0 mi South 13.8 mph - N/A   Clear
10:54 PM 60.1 °F 50.0 °F 69% 29.81 in 10.0 mi South 10.4 mph - N/A   Clear
11:54 PM 59.0 °F 50.0 °F 72% 29.81 in 10.0 mi SSE 9.2 mph - N/A   Clear